Home > Weather > Sherbrooke > Past weeks

Flag for Canada Weather for the Past 2 Weeks in Sherbrooke, Quebec, Canada

Now
14 °F

Light snow. Overcast.


Feels Like: 4 °F
Forecast: 14 / 22 °F
Wind: 7 mph from Northeast

Location: Sherbrooke

Current Time: Feb 9, 2016 at 1:36:44 AM

Latest Report: Feb 9, 2016 at 12:00 AM


Visibility: 1 mi

Pressure: 29.85 "Hg

Humidity: 92%

Dew point: 12 °F

Location of SherbrookeLocation

Historic Weather in Sherbrooke — Graph

°F

Sherbrooke Temperature Yesterday

Maximum temperature yesterday: 21 °F (at 1:00 PM)
Minimum temperature yesterday: 10 °F (at 2:00 AM)
Average temperature yesterday: 15 °F

High & Low Weather Summary for the Past Weeks

 TemperatureHumidityPressure
High48 °F (Feb 1, 4:58 AM)100% (Jan 27, 3:56 AM)30.44 "Hg (Jan 27, 3:56 AM)
Low3 °F (Jan 28, 2:00 AM)33% (Feb 7, 2:00 PM)29.41 "Hg (Jan 29, 1:49 PM)
Average27 °F79%29.94 "Hg
* Reported Midnight between Jan 24 and Jan 25 — Midnight between Feb 8 and Feb 9, Sherbrooke, Weather by CustomWeather, © 2016

Note: Actual official high and low records may vary slightly from our data, if they occured in-between our weather recording intervals... More about our weather records

Advertising

Sherbrooke Weather History for the Previous 24 Hours

 ConditionsComfort  
Time TempWeatherWind HumidityBarometerVisibility
12:00 AM
Tue, Feb 9
14 °FLight snow. Overcast.7 mph92%29.85 "Hg1 mi
11:54 PM
Mon, Feb 8
14 °FLight snow. Overcast.8 mph92%29.85 "Hg2 mi
11:00 PM14 °FLight snow. Overcast.10 mph92%29.88 "Hg1 mi
10:00 PM18 °FMostly cloudy.10 mph53%29.90 "Hg9 mi
9:00 PM18 °FOvercast.9 mph53%29.91 "Hg9 mi
8:00 PM18 °FOvercast.9 mph58%29.91 "Hg9 mi
7:00 PM18 °FOvercast.8 mph58%29.91 "Hg9 mi
6:00 PM19 °FOvercast.8 mph53%29.90 "Hg9 mi
5:00 PM19 °FOvercast.10 mph45%29.90 "Hg9 mi
4:00 PM21 °FOvercast.12 mph42%29.89 "Hg9 mi
3:00 PM21 °FScattered clouds.10 mph42%29.90 "Hg9 mi
2:00 PM21 °FPassing clouds.13 mph35%29.92 "Hg9 mi
1:00 PM21 °FSunny.8 mph35%29.93 "Hg9 mi
12:00 PM19 °FSunny.10 mph38%29.96 "Hg9 mi
11:00 AM18 °FSunny.9 mph38%29.98 "Hg9 mi
10:00 AM16 °FSunny.7 mph41%30.01 "Hg9 mi
9:00 AM14 °FSunny.7 mph44%30.03 "Hg9 mi
8:00 AM10 °FSunny.12 mph47%30.03 "Hg9 mi
7:00 AM10 °FSunny.10 mph47%30.04 "Hg9 mi
6:00 AM10 °FClear.9 mph52%30.06 "Hg9 mi
5:00 AM10 °FClear.15 mph52%30.06 "Hg9 mi
4:00 AM10 °FClear.14 mph56%30.08 "Hg9 mi
3:00 AM10 °FClear.13 mph56%30.10 "Hg9 mi
2:00 AM10 °FClear.9 mph61%30.11 "Hg9 mi
1:00 AM12 °FClear.10 mph62%30.15 "Hg9 mi
Weather by CustomWeather, © 2016

See weather overviewHow to use our weather pages